FW4000 Weather Reports


time (UTC)temp
F
wind
direction
speed
knots
gust
knots
rain 1hr
in
rain 24hr
in
rain mn
in
humidity
%
barometer
mb
20260507203033 61 360 0.9 1.7 0.00 0.03 0.02 71 1013.0
20260507201604 62 360 3.5 5.2 0.00 0.03 0.02 68 1012.8
20260507200114 62 360 1.7 4.3 0.00 0.03 0.02 68 1012.7
20260507194632 62 360 1.7 3.5 0.00 0.03 0.02 69 1012.6
20260507193001 63 360 1.7 3.5 0.00 0.03 0.02 71 1012.4
20260507191634 63 360 2.6 4.3 0.00 0.03 0.02 71 1012.3
20260507190127 63 360 3.5 5.2 0.00 0.03 0.02 70 1012.1
20260507184628 63 360 4.3 6.1 0.00 0.03 0.02 70 1011.9
20260507183121 64 360 4.3 7.0 0.00 0.03 0.02 70 1011.7
20260507181610 63 360 6.1 7.8 0.00 0.03 0.02 70 1011.7
20260507180119 64 360 7.0 7.8 0.00 0.03 0.02 70 1011.5
20260507174610 64 360 6.1 7.8 0.01 0.03 0.02 67 1011.3
20260507173105 64 360 6.1 9.6 0.01 0.03 0.02 66 1011.3
20260507171622 64 360 9.6 12.2 0.01 0.03 0.02 64 1011.4
20260507170123 64 360 6.1 9.6 0.01 0.03 0.02 69 1011.4
20260507164634 64 360 7.8 8.7 0.00 0.02 0.01 70 1011.4
20260507163011 65 360 7.0 10.4 0.00 0.02 0.01 69 1011.5
20260507161545 65 360 9.6 12.2 0.00 0.02 0.01 66 1011.5
20260507160026 65 360 5.2 7.0 0.00 0.02 0.01 67 1011.4
20260507154605 65 360 4.3 6.1 0.00 0.02 0.01 63 1011.4
20260507153110 65 360 3.5 5.2 0.00 0.02 0.01 62 1011.6
20260507151527 65 360 5.2 7.0 0.00 0.02 0.01 63 1011.7
20260507150053 64 360 5.2 6.1 0.00 0.02 0.01 68 1011.7
20260507144609 65 360 5.2 7.0 0.00 0.02 0.01 63 1011.9
20260507143116 65 360 5.2 7.0 0.00 0.02 0.01 63 1011.9
20260507141626 65 360 5.2 7.8 0.00 0.02 0.01 65 1012.0
20260507140003 65 360 5.2 8.7 0.00 0.02 0.01 61 1012.1
20260507134503 64 360 7.0 7.8 0.00 0.02 0.01 62 1012.2
20260507133130 64 360 4.3 6.1 0.00 0.02 0.01 61 1012.5
20260507131612 64 360 4.3 6.1 0.00 0.02 0.01 64 1012.6
20260507130121 63 360 6.1 7.8 0.00 0.02 0.01 65 1012.7
20260507124607 63 360 5.2 6.1 0.00 0.02 0.01 68 1012.8
20260507123055 62 360 5.2 7.0 0.00 0.02 0.01 70 1012.9
20260507121608 61 360 4.3 6.1 0.00 0.02 0.01 69 1013.0
20260507120110 61 360 4.3 6.1 0.00 0.02 0.01 71 1013.1
20260507114616 61 360 4.3 6.1 0.00 0.02 0.01 73 1013.2
20260507113115 60 360 5.2 7.0 0.00 0.02 0.01 73 1013.3
20260507111609 60 360 5.2 6.1 0.00 0.02 0.01 74 1013.4
20260507110111 59 360 5.2 7.0 0.00 0.02 0.01 74 1013.6
20260507104609 58 360 4.3 7.0 0.00 0.14 0.01 76 1013.6
20260507103055 58 360 5.2 6.1 0.00 0.14 0.01 76 1013.7
20260507101606 57 360 5.2 7.0 0.00 0.14 0.01 78 1013.8
20260507100048 56 360 4.3 6.1 0.00 0.14 0.01 78 1013.9
20260507094533 56 360 4.3 6.1 0.00 0.15 0.01 85 1013.9
20260507093105 55 360 4.3 6.1 0.00 0.15 0.01 86 1014.0
20260507091625 55 360 3.5 4.3 0.00 0.15 0.01 83 1014.0
20260507090110 55 360 1.7 3.5 0.01 0.15 0.01 80 1014.0
20260507084604 54 360 2.6 4.3 0.01 0.17 0.01 82 1014.1
20260507083105 54 360 2.6 4.3 0.01 0.17 0.01 81 1014.1
20260507081613 54 360 2.6 6.1 0.01 0.17 0.01 84 1014.2
20260507080106 54 360 1.7 3.5 0.00 0.16 0.00 86 1014.2
20260507074619 54 360 1.7 3.5 0.00 0.16 0.00 85 1014.3
20260507073003 54 360 2.6 4.3 0.00 0.16 0.00 84 1014.3
20260507071504 54 360 0.9 3.5 0.00 0.16 0.00 85 1014.4
20260507070010 53 360 0.0 2.6 0.00 0.16 0.00 87 1014.4
20260507064634 53 360 1.7 2.6 0.00 0.17 0.00 87 1014.3
20260507063019 53 360 0.0 0.0 0.00 0.17 0.00 87 1014.4
20260507061551 53 360 0.0 2.6 0.00 0.17 0.00 89 1014.3
20260507060107 52 360 0.0 1.7 0.00 0.17 0.00 91 1014.3
20260507054640 52 360 0.0 2.6 0.00 0.17 0.00 92 1014.4
20260507053130 51 360 0.9 4.3 0.00 0.17 0.00 92 1014.3
20260507051625 51 360 0.9 2.6 0.00 0.17 0.00 92 1014.1
20260507050127 51 360 0.0 0.0 0.00 0.17 0.00 92 1014.0
20260507044630 51 360 0.0 2.6 0.00 0.17 0.00 91 1013.9
20260507043001 51 360 0.9 3.5 0.00 0.17 0.00 91 1013.8
20260507041506 51 360 5.2 6.1 0.00 0.17 0.00 91 1013.7
20260507040052 51 360 2.6 4.3 0.00 0.17 0.00 92 1013.7
20260507034603 50 360 0.9 3.5 0.00 0.17 0.00 91 1013.6
20260507033032 51 360 1.7 3.5 0.00 0.17 0.00 91 1013.6
20260507031609 51 360 0.9 4.3 0.00 0.17 0.00 90 1013.6
20260507030115 51 360 0.9 4.3 0.00 0.17 0.00 90 1013.5
20260507024619 51 360 0.9 3.5 0.00 0.17 0.00 90 1013.6
20260507023129 51 360 2.6 4.3 0.00 0.17 0.00 90 1013.6
20260507021504 51 360 0.9 2.6 0.00 0.17 0.00 89 1013.6
20260507020019 50 360 1.7 3.5 0.00 0.17 0.00 88 1013.5
20260507014503 50 360 1.7 3.5 0.00 0.17 0.00 88 1013.5
20260507013133 50 360 1.7 4.3 0.00 0.17 0.00 88 1013.4
20260507011512 51 360 1.7 2.6 0.00 0.17 0.00 88 1013.2
20260507010017 51 360 1.7 3.5 0.00 0.17 0.00 87 1013.2
20260507004553 51 360 0.9 2.6 0.00 0.17 0.00 86 1013.1
20260507003107 51 360 1.7 3.5 0.00 0.17 0.00 85 1013.2
20260507001607 52 360 1.7 2.6 0.00 0.17 0.00 84 1013.2
20260507000048 52 360 0.0 2.6 0.00 0.17 0.00 82 1013.1
20260506234507 53 360 2.6 6.1 0.00 0.17 0.00 81 1013.1
20260506233112 53 360 0.9 2.6 0.00 0.17 0.00 82 1013.1
20260506231514 53 360 1.7 3.5 0.00 0.17 0.00 81 1013.0
20260506230109 54 360 1.7 5.2 0.00 0.17 0.00 80 1013.1
20260506224614 55 360 0.9 3.5 0.00 0.17 0.00 77 1013.0
20260506223114 55 360 3.5 5.2 0.00 0.17 0.00 79 1012.9
20260506221607 55 360 1.7 3.5 0.00 0.17 0.00 79 1012.8
20260506220100 55 360 1.7 5.2 0.00 0.17 0.00 80 1012.7
20260506214605 55 360 1.7 4.3 0.02 0.19 0.17 79 1012.6
20260506213124 56 360 1.7 5.2 0.02 0.19 0.17 78 1012.5
20260506211610 56 360 6.1 7.0 0.02 0.19 0.17 78 1012.5
20260506210119 55 360 7.0 10.4 0.02 0.19 0.17 84 1012.4
20260506204626 54 360 1.7 2.6 0.00 0.28 0.16 85 1012.3